    Orbital elements:
    2014 TZ17                                                Earth MOID = 0.0424 AU
    Epoch 2014 Dec. 9.0 TT = JDT 2457000.5                  MPC
    M  21.36835              (2000.0)            P               Q
    n   0.25733266     Peri.  341.89767     +0.99123072     +0.13029433
    a   2.4479701      Node    10.68781     -0.10173854     +0.85884709
    e   0.5769854      Incl.    6.82019     -0.08432632     +0.49538375
    P   3.83           H   22.8           G   0.15           U   5
    Residuals in seconds of arc
    141004 703  0.5-  0.2-    141004 J95  0.0   0.1+    141005 H21  0.1-  0.0
    141004 703  0.2-  0.6+    141005 Z99  0.0   0.1-    141005 V37  0.1+  0.0
    141004 703  0.1-  0.0     141005 C43  0.1-  0.1-    141005 V37  0.0   0.1-
    141004 703  0.2+  0.4+    141005 C43  0.0   0.2-    141005 V37  0.0   0.1+
    141004 703  0.0   0.4+    141005 Z99  0.1+  0.1-    141005 V37  0.0   0.1-
    141004 703  0.1-  0.0     141005 Z99  0.1+  0.2-    141005 V37  0.1+  0.1-
    141004 H36  0.2+  0.2-    141005 H01  0.0   0.3-    141005 V37  0.0   0.0
    141004 H36  0.3+  0.1+    141005 H01  0.1-  0.3-    141005 958  0.2+  0.5+
    141004 703  0.3-  0.1+    141005 H01  0.1-  0.1+    141005 958  0.5+  0.9+
    141004 H36  0.4+  0.1-    141005 H01  0.2-  0.1-    141005 958  0.6+  0.8+
    141004 H36  0.5+  0.6+    141005 718  0.2+  0.2+    141005 958  0.1+  1.0+
    141004 703  0.3-  0.3+    141005 718  0.3-  0.1-    141006 493  0.1-  0.0
    141004 O75  0.6+  0.9-    141005 718  0.2-  0.1-    141006 493  0.1-  0.1-
    141004 O75  0.1-  0.1+    141005 718  0.3+  0.2-    141006 493  0.1-  0.1+
    141004 O75  0.9+  0.3-    141005 718  0.4-  0.5+    141006 G96  0.2-  0.1+
    141004 160  0.0   0.1-    141005 H36  0.3-  0.5+    141006 G96  0.1-  0.3+
    141004 160  0.1+  0.2+    141005 H36  0.1+  0.5+    141006 G96  0.0   0.2-
    141004 160  0.2-  0.0     141005 H36  0.3+  0.2-    141006 G96  0.1-  0.2-
    141004 160  0.1-  0.5-    141005 H21  0.0   0.0     141006 300  0.6+  0.4-
    141004 160  0.4-  0.5-    141005 H21  0.0   0.1+    141006 300  0.2-  0.4-
    141004 J95  0.3+  0.0     141005 H21  0.1-  0.1-    141006 300  0.6+  0.0
    141004 J95  0.1+  0.1-    141005 H21  0.0   0.0     141006 300  0.2-  0.4-
    
    Ephemeris:
    2014 TZ17                a,e,i = 2.45, 0.58, 7                   q = 1.0355
    Date    TT    R. A. (2000) Decl.     Delta      r     Elong.  Phase     V
    2014 09 06    19 34 29.7 -66 01 59   0.09228 1.0449   111.1    64.2    20.0
    ...
    2014 09 21    00 33 37.0 -41 56 12   0.04337 1.0368   137.9    40.5    17.7
    ...
    2014 09 29    02 02 47.3 +01 34 49   0.04966 1.0469   154.4    24.4    17.5
    ...
    2014 10 05    02 32 38.1 +20 10 58   0.07021 1.0609   148.9    29.1    18.4
    2014 10 06    02 35 59.3 +22 10 30   0.07426 1.0637   148.3    29.6    18.6
    2014 10 07    02 39 00.1 +23 56 45   0.07842 1.0667   147.7    30.0    18.7
    ...
    2014 10 13    02 51 32.8 +31 14 53   0.1052  1.0874   146.8    30.2    19.4
    ...
    2014 10 21    02 58 38.0 +35 56 57   0.1442  1.1219   149.1    27.1    20.1
    ...
    2014 11 05    02 59 19.7 +38 21 04   0.2277  1.2041   156.8    19.0    21.0
    
    A. U. Tomatic                (C) Copyright 2014 MPC           M.P.E.C. 2014-T45
    

    Read MPEC 2014-T44 Read MPEC 2014-T46


    MPEC number:

    Enter an MPEC number in one of the following forms:

    • 1997-B01 (the full form)
    • J97B01 (the packed version of the full form)
    • B01 (the abbreviated form)